Volver al catálogo

STARLINK-5808

ActivoComunicacionesVLEO
NORAD 56927·PAYLOAD·🇺🇸 United States

Lanzado Jun 12, 2023 desde Cape Canaveral Space Force Station

Loading…

Próximos Pases (próximas 24 horas)

TLE

ActualizadoSource: CelesTrak SupGP

Época: Sep 14, 2026, 14:58 UTC

1 56927C 23083BD  26257.62409722  .00025354  00000+0  91860-3 0  2571
2 56927  43.0036 352.7524 0001282 276.0854 332.7509 15.27556248    15

Sigue STARLINK-5808 en tiempo real con AllMySat

Download on the App Store